DECAYED

SL-16 DEB, 22443 (Decayed)

Orbit data source: Space-Track

SL-16 DEB, 22443 was space debris in LEO originally from a launch on Fri, 25 Dec 1992 UTC launched from the Tyuratam Missile And Space Complex (TTMTR). Debris objects in space refer to the collection of defunct objects orbiting the Earth. Examples of debris include non-operational satellites, rocket bodies, and fragments generated from explosions, collisions, or faulty payload assembly.

Not visible in the next 10 days
Identifier
22443, 1992-093EL
Orbit
Decayed
Country
Flag of CISCIS
Related business
Manufacturer
Unknown
Mission
Decayed spacecraft
Bus & Motor
Unknown
Mass
Unknown
Launch date (UTC)
1992-12-25 (33 years ago)
Launch vehicle
Unknown
Launch site
Tyuratam Missile And Space Complex (TTMTR)
Object type
Payload
Rocket body
Debris
Shape & HBR
Unknown shape, 0.1 m
Radar Cross Section
Small (<0.1 m²)

Expand to show TLE details & history
Last TLE update: 6 months ago

TLE from 6 months ago
0 SL-16 DEB
1 22443U 92093EL  25176.22145661  .12319066  33686-5  94757-2 0  9999
2 22443  71.0326 118.1377 0024621 215.2759 144.6839 16.14012607679757
Epoch: 2025-06-25T05:18Z
TLE epoch observation values (Epoch: 2025-06-25T05:18:53.851Z)
Latitude
-0°
Longitude
124.80718°
Altitude
251.784 km
Speed
7.748 km/s
True Right ascension
07h 52m 33s
True Declination
0° 00' 00"
Sunlit
Object was in daylight at epoch
Visualization orbit readout
Latitude
Unknown
Longitude
Unknown
Altitude
Unknown
Speed
Unknown
Apparent Right ascension
Unknown
Apparent Declination
Unknown
Sunlit
N/A
Visualization observer readout
Local Sidereal Time
09:27:16
Azimuth
Unknown
Elevation
Unknown
Doppler factor
Unknown
Orbital elements
Apogee altitude
249.868 km
Perigee altitude
217.31 km
Semi-major axis
6,611.726 km
Eccentricity
0.00246
Inclination
71.0326°
RAAN
118.1377°
Arg. of periapsis
215.2759°
True anomaly
144.84659°
Mean anomaly
144.6839°
Eccentric anomaly
144.76529°
Mean motion
4.03711 °/min
Orbital period
89.17 mins
BSTAR
0.0094757
Loading maneuver chart data...
Computing Atmospheric mass density...
Loading historical data...
Loading historical data...
Loading historical data...
Loading historical data...
Loading historical data...
Loading historical data...
Loading historical data...

Documentation

Showing up to 5 results
|